Regional Weather Roundup
Issued by NWS

Home | Current Version | Previous Version | Graphics & Text | Print | Product List | Glossary On
Versions: 1 2 3 4 5 6 7 8 9 10 11 12 13 14 15 16 17 18 19 20 21 22 23 24 25 26 27 28 29 30 31 32 33 34 35 36 37 38 39 40 41 42 43 44 45 46 47 48 49 50
000
ASUS43 KDMX 272307
RWRIA

WEATHER ROUNDUP FOR IOWA
NATIONAL WEATHER SERVICE DES MOINES IA
500 PM CST FRI FEB 27 2015

NOTE: "FAIR" INDICATES FEW OR NO CLOUDS BELOW 12,000 FEET WITH NO
SIGNIFICANT WEATHER AND/OR OBSTRUCTIONS TO VISIBILITY.

* - THESE STATIONS ARE NOT NWS STATIONS...THUS NOT UNDER NWS
QUALITY CONTROL.  THEY ALSO DO NOT REPORT WEATHER SUCH
AS PRECIPITATION OR FOG.

IAZ001>003-012>014-020>022-031>034-043>046-280000-
   NORTHWEST IOWA

CITY           SKY/WX    TMP DP  RH WIND       PRES   REMARKS
CARROLL *      SUNNY     10   0  61 VRB5      30.52F WCI   2
CHEROKEE *     SUNNY     10   0  61 SE6       30.50F WCI   1
DENISON *      SUNNY     12   0  57 SE5       30.49F WCI   4
LE MARS *      SUNNY     14   5  67 S9        30.49F WCI   2
ORANGE CITY *  SUNNY     14   1  57 S8        30.47S WCI   3
SHELDON *      SUNNY     12   1  62 S9        30.46S WCI   0
SPENCER        SUNNY     11   1  64 S7        30.49F WCI   0
STORM LAKE *   SUNNY      9   0  66 S8        30.49F WCI  -4
$$

IAZ055>058-069>071-079>083-090>094-280000-
   SOUTHWEST IOWA

CITY           SKY/WX    TMP DP  RH WIND       PRES   REMARKS
ATLANTIC *     SUNNY     14   1  57 SE3       30.52F
AUDUBON *      SUNNY     14   0  52 CALM      30.51
CLARINDA *     SUNNY     19  -2  38 S3        30.55S
COUNCIL BLFS * SUNNY     18   5  57 E9        30.49F WCI   6
CRESTON *      SUNNY     16   0  48 E5        30.51F WCI   9
HARLAN  *      SUNNY     12   3  67 SE5       30.55F WCI   4
LAMONI         SUNNY     14  -1  51 SE5       30.53F WCI   6
RED OAK *      SUNNY     18   3  53 E3        30.53S
SHENANDOAH *   SUNNY     19   0  42 SE5       30.54S WCI  13
$$

IAZ047>049-059>061-072>074-084-280000-
   CENTRAL IOWA

CITY           SKY/WX    TMP DP  RH WIND       PRES   REMARKS
AMES           SUNNY     10  -1  61 S3        30.57F
ANKENY *       SUNNY     12   0  57 E6        30.57F WCI   3
CHARITON *     SUNNY     14   0  52 CALM      30.55S
DES MOINES     MOSUNNY   14  -3  47 CALM      30.56F
GRINNELL*      CLEAR      9  -2  61 CALM      30.58F
KNOXVILLE *    SUNNY     12  -2  52 CALM      30.56F
MARSHALLTOWN   CLEAR      7  -2  66 CALM      30.57S
PELLA *        CLEAR     14   1  57 NE3       30.59F
PERRY *          N/A     14   3  62 CALM      30.55F
$$

IAZ004>006-015-016-023>025-035-036-280000-
   NORTH CENTRAL IOWA

CITY           SKY/WX    TMP DP  RH WIND       PRES   REMARKS
ALGONA *       MOSUNNY   10   1  67 S8        30.52S WCI  -1
CLARION *      MOSUNNY    9   0  66 S3        30.54F
ESTHERVILLE    SUNNY     10   2  69 SW8       30.48F WCI  -2
FORT DODGE *   SUNNY      9   0  66 S6        30.54F WCI  -1
MASON CITY     CLEAR      6   0  76 S8        30.53F WCI  -7
FOREST CITY *  CLEAR     10   0  61 S5        30.51F WCI   2
IOWA FALLS *     N/A      9   0  66 CALM      30.56F HAZE
$$

IAZ007>011-017>019-026>030-037>042-050>054-066-280000-
   NORTHEAST IOWA

CITY           SKY/WX    TMP DP  RH WIND       PRES   REMARKS
CEDAR RAPIDS   CLEAR      5  -3  69 NW5       30.59S WCI  -4
CHARLES CITY * CLEAR      5  -4  66 SW7       30.55F WCI  -7
CLINTON *      CLEAR      3  -2  78 NW6       30.64S WCI  -8
DECORAH *      CLEAR      7  -6  56 W7        30.53F WCI  -5
DUBUQUE        CLEAR      6  -5  60 W8        30.56S WCI  -7
MONTICELLO *   CLEAR      7  -6  56 W5        30.59F WCI  -2
OELWEIN *      CLEAR      3  -6  66 W5        30.57S WCI  -6
WATERLOO       CLEAR      4  -6  63 SW6       30.58F WCI  -7
$$

IAZ064-065-067-068-078-280000-
   EAST CENTRAL IOWA

CITY           SKY/WX    TMP DP  RH WIND       PRES   REMARKS
DAVENPORT      CLEAR      5  -4  66 W6        30.62S WCI  -6
IOWA CITY      CLEAR      7  -3  64 CALM      30.64S
MT. PLEASANT * CLEAR      9  -2  61 NE6       30.62S WCI  -1
MUSCATINE *    CLEAR     10  -2  56 W3        30.65S
QUAD CITIES    CLEAR      9  -5  53 SW5       30.63R WCI   1
$$

IAZ062-063-075>077-085>089-095>099-280000-
   SOUTHEAST IOWA

CITY           SKY/WX    TMP DP  RH WIND       PRES   REMARKS
BURLINGTON     CLEAR     11  -2  56 CALM      30.61F
FAIRFIELD *    CLEAR      9  -2  61 N5        30.60F WCI   0
FORT MADISON * CLEAR      9  -2  61 CALM      30.62S
KEOKUK *       CLEAR     12   1  62 E7        30.61S WCI   2
OSKALOOSA *      N/A     10   0  61 N5        30.59F WCI   2
CENTERVILLE *  SUNNY     12   0  57 CALM      30.57S
OTTUMWA        CLEAR     11   0  61 NE8       30.58F WCI  -1
WASHINGTON *   CLEAR     10   0  61 CALM      30.61F
$$

ABBREVIATIONS USED IN REMARKS
   TC - TEMPERATURES IN CELSIUS
  WCI - WIND CHILL INDEX
   HX - HEAT INDEX
  VSB - VISIBILITY
$$




USA.gov is the U.S. government's official web portal to all federal, state and local government web resources and services.